GW5620 Weather Reports


Display with metric or nautical units.
time (UTC)temp
F
wind
direction
speed
MPH
gust
MPH
rain 1hr
in
rain 24hr
in
rain mn
in
humidity
%
barometer
mb
20260506135007 60 206 0.0 6.0 0.09 0.17 0.17 89 1006.6
20260506134506 60 198 0.0 6.0 0.07 0.14 0.14 89 1006.9
20260506133506 61 188 3.0 8.0 0.06 0.12 0.12 89 1006.6
20260506133006 60 217 2.0 8.0 0.06 0.12 0.12 89 1006.6
20260506132506 60 192 3.0 7.0 0.05 0.11 0.11 88 1006.7
20260506132007 60 206 2.0 10.0 0.05 0.11 0.11 88 1006.7
20260506131007 60 217 3.0 7.0 0.05 0.11 0.11 87 1006.7
20260506130506 60 190 2.0 10.0 0.05 0.10 0.10 87 1006.7
20260506130006 60 197 4.0 15.0 0.04 0.09 0.09 86 1006.6
20260506125506 60 193 5.0 9.0 0.03 0.08 0.08 86 1006.7
20260506125006 61 190 3.0 8.0 0.03 0.08 0.08 86 1006.6
20260506124506 61 201 3.0 9.0 0.02 0.07 0.07 86 1006.5
20260506124006 61 179 1.0 8.0 0.03 0.07 0.07 85 1006.4
20260506123506 61 183 3.0 7.0 0.02 0.06 0.06 85 1006.5
20260506123006 61 176 4.0 9.0 0.02 0.06 0.06 85 1006.5
20260506122506 61 209 2.0 10.0 0.03 0.06 0.06 85 1006.5
20260506122006 61 180 3.0 10.0 0.03 0.06 0.06 85 1006.7
20260506121006 61 201 2.0 10.0 0.04 0.06 0.06 85 1006.8
20260506120506 61 214 2.0 9.0 0.04 0.05 0.05 84 1006.7
20260506120006 61 180 2.0 8.0 0.04 0.05 0.05 84 1006.8
20260506115507 61 213 0.0 2.0 0.04 0.05 0.05 83 1006.8
20260506115006 61 210 1.0 7.0 0.05 0.05 0.05 83 1006.8
20260506114506 61 171 1.0 6.0 0.05 0.05 0.05 83 1006.9
20260506113506 61 184 1.0 8.0 0.04 0.04 0.04 81 1007.1
20260506112506 62 221 0.0 3.0 0.03 0.03 0.03 80 1007.2
20260506111506 62 194 0.0 3.0 0.03 0.03 0.03 78 1007.1
20260506111006 62 184 0.0 5.0 0.02 0.02 0.02 77 1007.0
20260506110506 63 233 0.0 8.0 0.01 0.01 0.01 76 1006.9
20260506110006 63 206 1.0 5.0 0.01 0.01 0.01 75 1006.7
20260506105006 64 215 1.0 10.0 0.00 0.00 0.00 72 1006.5
20260506104006 64 203 2.0 14.0 0.00 0.00 0.00 69 1006.2
20260506103506 64 200 1.0 9.0 0.00 0.00 0.00 69 1006.2
20260506103006 64 250 2.0 9.0 0.00 0.00 0.00 68 1006.1
20260506102506 64 208 3.0 10.0 0.00 0.00 0.00 67 1006.0
20260506102006 65 201 1.0 9.0 0.00 0.00 0.00 66 1005.9
20260506101505 65 207 2.0 9.0 0.00 0.00 0.00 65 1005.8
20260506101006 65 187 2.0 10.0 0.00 0.00 0.00 64 1005.9
20260506100506 65 205 0.0 8.0 0.00 0.00 0.00 64 1005.9
20260506100006 65 215 2.0 9.0 0.00 0.00 0.00 63 1005.8
20260506095006 65 207 0.0 7.0 0.00 0.00 0.00 62 1005.8
20260506094006 65 172 0.0 3.0 0.00 0.00 0.00 62 1005.7
20260506093506 65 187 0.0 6.0 0.00 0.00 0.00 62 1005.7
20260506093006 65 225 1.0 10.0 0.00 0.00 0.00 62 1005.7
20260506092506 65 222 1.0 3.0 0.00 0.00 0.00 62 1005.7
20260506092006 65 194 1.0 9.0 0.00 0.00 0.00 62 1005.9
20260506091506 65 218 0.0 3.0 0.00 0.00 0.00 62 1005.8
20260506091006 65 204 0.0 3.0 0.00 0.00 0.00 61 1005.9
20260506090506 65 192 0.0 3.0 0.00 0.00 0.00 61 1005.9
20260506090006 65 182 0.0 3.0 0.00 0.00 0.00 61 1005.9
20260506085506 65 198 0.0 7.0 0.00 0.00 0.00 61 1006.0
20260506085006 66 214 0.0 5.0 0.00 0.00 0.00 60 1006.1
20260506084506 66 226 2.0 8.0 0.00 0.00 0.00 60 1006.1
20260506083506 66 192 2.0 7.0 0.00 0.00 0.00 60 1006.1
20260506083006 66 187 2.0 10.0 0.00 0.00 0.00 60 1006.2
20260506082505 66 195 2.0 12.0 0.00 0.00 0.00 60 1006.2
20260506082006 66 192 0.0 12.0 0.00 0.00 0.00 59 1006.3
20260506081506 66 214 1.0 9.0 0.00 0.00 0.00 59 1006.3
20260506081006 66 198 1.0 12.0 0.00 0.00 0.00 59 1006.3
20260506073506 66 198 1.0 8.0 0.00 0.00 0.00 57 1006.0
20260506073005 66 189 2.0 7.0 0.00 0.00 0.00 57 1006.0
20260506072506 66 194 1.0 9.0 0.00 0.00 0.00 56 1006.1
20260506072005 66 213 0.0 10.0 0.00 0.00 0.00 56 1006.2
20260506071505 67 185 2.0 9.0 0.00 0.00 0.00 56 1006.3
20260506071005 67 201 1.0 8.0 0.00 0.00 0.00 56 1006.4
20260506070505 67 184 1.0 10.0 0.00 0.00 0.00 55 1006.4
20260506062506 68 204 2.0 9.0 0.00 0.00 0.00 51 1006.8
20260506062005 68 188 1.0 6.0 0.00 0.00 0.00 51 1006.9
20260506061505 68 208 0.0 6.0 0.00 0.00 0.00 51 1007.0
20260506061005 68 181 0.0 3.0 0.00 0.00 0.00 50 1007.1
20260506060505 68 169 1.0 9.0 0.00 0.00 0.00 50 1007.1
20260506051005 68 209 1.0 9.0 0.00 0.00 0.00 47 1007.7
20260506050504 68 211 0.0 5.0 0.00 0.00 0.00 47 1007.8
20260506045005 68 185 0.0 8.0 0.00 0.00 0.00 47 1007.8
20260506044505 68 191 0.0 5.0 0.00 0.00 0.00 47 1007.8
20260506043505 68 189 1.0 5.0 0.00 0.00 0.00 46 1007.8
20260506043004 68 196 0.0 1.0 0.00 0.00 0.00 46 1007.8
20260506042504 68 208 1.0 3.0 0.00 0.00 0.00 45 1007.8
20260506042005 68 212 0.0 0.0 0.00 0.00 0.00 45 1007.7
20260506041505 68 185 0.0 5.0 0.00 0.00 0.00 45 1007.8
20260506041005 69 194 0.0 0.0 0.00 0.00 0.00 45 1007.7
20260506040505 69 194 0.0 0.0 0.00 0.00 0.00 45 1007.7
20260506040004 69 196 0.0 1.0 0.00 0.00 0.00 44 1007.7
20260506035005 68 188 0.0 2.0 0.00 0.00 0.00 44 1007.7
20260506034505 68 194 0.0 3.0 0.00 0.00 0.00 44 1007.7
20260506034005 68 175 0.0 3.0 0.00 0.00 0.00 44 1007.7
20260506033504 68 202 0.0 3.0 0.00 0.00 0.00 44 1007.6
20260506032004 68 190 0.0 3.0 0.00 0.00 0.00 43 1007.6
20260506031004 69 197 0.0 0.0 0.00 0.00 0.00 42 1007.5
20260506030505 69 197 0.0 2.0 0.00 0.00 0.00 41 1007.5
20260506030004 69 192 0.0 0.0 0.00 0.00 0.00 41 1007.6
20260506024505 70 182 0.0 0.0 0.00 0.00 0.00 40 1007.7
20260506024005 70 189 0.0 2.0 0.00 0.00 0.00 39 1007.6
20260506023005 70 185 0.0 0.0 0.00 0.00 0.00 39 1007.6
20260506022504 71 185 0.0 0.0 0.00 0.00 0.00 38 1007.6
20260506022004 71 207 0.0 1.0 0.00 0.00 0.00 38 1007.6
20260506021504 71 184 0.0 3.0 0.00 0.00 0.00 38 1007.6
20260506021004 71 231 0.0 5.0 0.00 0.00 0.00 37 1007.7
20260506020006 71 225 0.0 0.0 0.00 0.00 0.00 37 1007.6
20260506015505 71 224 0.0 0.0 0.00 0.00 0.00 37 1007.7
20260506015004 71 242 0.0 0.0 0.00 0.00 0.00 37 1007.7
20260506014504 71 244 0.0 0.0 0.00 0.00 0.00 37 1007.6
20260506014004 71 236 0.0 0.0 0.00 0.00 0.00 37 1007.5
20260506013504 71 190 0.0 0.0 0.00 0.00 0.00 37 1007.5
20260506012504 71 190 0.0 0.0 0.00 0.00 0.00 37 1007.4
20260506011504 71 195 0.0 0.0 0.00 0.00 0.00 37 1007.3
20260506011005 71 205 0.0 0.0 0.00 0.00 0.00 36 1007.2
20260506010504 72 176 0.0 0.0 0.00 0.00 0.00 36 1007.2
20260506010004 72 205 0.0 0.0 0.00 0.00 0.00 37 1007.1
20260506005004 72 205 0.0 0.0 0.00 0.00 0.00 37 1007.0
20260506004504 72 194 0.0 1.0 0.00 0.00 0.00 37 1007.0
20260506004004 72 196 0.0 1.0 0.00 0.00 0.00 38 1006.9
20260506003505 73 198 0.0 0.0 0.00 0.00 0.00 37 1006.8
20260506003004 73 221 0.0 0.0 0.00 0.00 0.00 38 1006.7
20260506002503 73 195 0.0 1.0 0.00 0.00 0.00 38 1006.6
20260506002004 73 193 0.0 0.0 0.00 0.00 0.00 37 1006.6
20260506001504 74 193 0.0 0.0 0.00 0.00 0.00 37 1006.5
20260506001005 74 201 0.0 5.0 0.00 0.00 0.00 37 1006.5
20260506000505 74 185 0.0 0.0 0.00 0.00 0.00 37 1006.5
20260505235504 74 186 0.0 3.0 0.00 0.00 0.00 37 1006.4
20260505234504 75 189 1.0 6.0 0.00 0.00 0.00 36 1006.3
20260505234009 75 201 0.0 3.0 0.00 0.00 0.00 36 1006.3
20260505233509 76 180 1.0 6.0 0.00 0.00 0.00 36 1006.3
20260505233008 76 219 1.0 5.0 0.00 0.00 0.00 36 1006.4
20260505232508 76 191 2.0 18.0 0.00 0.00 0.00 36 1006.4
20260505232008 76 189 0.0 5.0 0.00 0.00 0.00 36 1006.3
20260505231509 76 190 3.0 9.0 0.00 0.00 0.00 36 1006.2
20260505231008 76 226 2.0 8.0 0.00 0.00 0.00 36 1006.3
20260505230509 76 200 1.0 6.0 0.00 0.00 0.00 36 1006.2
20260505230009 77 197 1.0 8.0 0.00 0.00 0.00 36 1006.2
20260505225008 77 191 1.0 9.0 0.00 0.00 0.00 36 1006.2
20260505224508 77 248 1.0 9.0 0.00 0.00 0.00 36 1006.2
20260505223509 77 204 0.0 6.0 0.00 0.00 0.00 37 1006.1
20260505223009 77 202 1.0 8.0 0.00 0.00 0.00 36 1006.2
20260505222509 78 207 1.0 10.0 0.00 0.00 0.00 35 1006.2
20260505222008 78 193 1.0 10.0 0.00 0.00 0.00 35 1006.2
20260505221508 78 199 2.0 10.0 0.00 0.00 0.00 34 1006.2
20260505221008 78 194 2.0 13.0 0.00 0.00 0.00 34 1006.2
20260505220508 78 228 2.0 14.0 0.00 0.00 0.00 34 1006.3
20260505215508 79 215 3.0 12.0 0.00 0.00 0.00 34 1006.3
20260505215009 79 228 1.0 13.0 0.00 0.00 0.00 35 1006.3
20260505214508 80 218 3.0 15.0 0.00 0.00 0.00 33 1006.2
20260505214009 80 212 2.0 16.0 0.00 0.00 0.00 29 1006.2
20260505213508 81 197 3.0 14.0 0.00 0.00 0.00 28 1006.2
20260505212508 82 216 2.0 14.0 0.00 0.00 0.00 31 1006.1
20260505212008 82 188 1.0 9.0 0.00 0.00 0.00 32 1006.0
20260505211508 82 216 5.0 14.0 0.00 0.00 0.00 30 1006.0
20260505211009 81 203 3.0 12.0 0.00 0.00 0.00 29 1006.0
20260505210509 81 224 2.0 10.0 0.00 0.00 0.00 31 1006.0
20260505210008 81 188 1.0 13.0 0.00 0.00 0.00 31 1006.0
20260505205509 81 205 3.0 9.0 0.00 0.00 0.00 30 1006.0
20260505205008 81 219 4.0 12.0 0.00 0.00 0.00 30 1006.1
20260505203509 82 189 3.0 20.0 0.00 0.00 0.00 30 1006.0
20260505203009 82 234 3.0 13.0 0.00 0.00 0.00 30 1006.1
20260505202508 82 119 0.0 5.0 0.00 0.00 0.00 31 1006.1
20260505202008 82 218 2.0 12.0 0.00 0.00 0.00 30 1006.1
20260505201508 82 239 5.0 15.0 0.00 0.00 0.00 30 1006.2
20260505200508 82 237 1.0 7.0 0.00 0.00 0.00 33 1006.2
20260505200008 82 243 2.0 12.0 0.00 0.00 0.00 35 1006.3
20260505195008 82 180 3.0 15.0 0.00 0.00 0.00 34 1006.4
20260505194508 82 191 2.0 12.0 0.00 0.00 0.00 36 1006.4
20260505194008 82 231 4.0 12.0 0.00 0.00 0.00 36 1006.4
20260505192508 81 219 4.0 14.0 0.00 0.00 0.00 33 1006.7
20260505192008 81 200 5.0 15.0 0.00 0.00 0.00 33 1006.8
20260505191508 81 201 2.0 12.0 0.00 0.00 0.00 35 1006.9
20260505191009 81 208 2.0 13.0 0.00 0.00 0.00 34 1006.9
20260505190008 81 239 2.0 12.0 0.00 0.00 0.00 36 1007.0
20260505185508 81 239 4.0 13.0 0.00 0.00 0.00 35 1007.1
20260505185008 81 204 5.0 16.0 0.00 0.00 0.00 36 1007.2
20260505184508 80 223 6.0 17.0 0.00 0.00 0.00 36 1007.2
20260505183508 82 178 3.0 13.0 0.00 0.00 0.00 34 1007.2
20260505183008 82 188 1.0 12.0 0.00 0.00 0.00 37 1007.4
20260505182508 82 228 4.0 12.0 0.00 0.00 0.00 35 1007.4
20260505182008 82 179 1.0 8.0 0.00 0.00 0.00 37 1007.4
20260505181507 81 209 2.0 12.0 0.00 0.00 0.00 36 1007.5
20260505180509 81 210 2.0 12.0 0.00 0.00 0.00 36 1007.5
20260505180008 81 225 5.0 14.0 0.00 0.00 0.00 35 1007.7
20260505175508 81 199 3.0 12.0 0.00 0.00 0.00 37 1007.7
20260505175008 81 226 5.0 18.0 0.00 0.00 0.00 36 1007.7
20260505174507 81 207 0.0 10.0 0.00 0.00 0.00 37 1007.7
20260505174007 81 211 4.0 12.0 0.00 0.00 0.00 37 1007.8
20260505173508 80 213 3.0 13.0 0.00 0.00 0.00 38 1007.8
20260505173008 80 245 3.0 17.0 0.00 0.00 0.00 37 1007.7
20260505172508 80 223 2.0 10.0 0.00 0.00 0.00 39 1007.7
20260505172008 80 187 3.0 15.0 0.00 0.00 0.00 37 1007.8
20260505171508 80 213 3.0 15.0 0.00 0.00 0.00 39 1007.9
20260505171008 80 216 3.0 17.0 0.00 0.00 0.00 40 1008.1
20260505170507 80 213 1.0 13.0 0.00 0.00 0.00 38 1008.1
20260505170007 80 239 3.0 13.0 0.00 0.00 0.00 39 1008.2
20260505165007 80 243 1.0 10.0 0.00 0.00 0.00 39 1008.3
20260505164008 80 239 1.0 6.0 0.00 0.00 0.00 39 1008.5
20260505163009 80 203 2.0 13.0 0.00 0.00 0.00 40 1008.6
20260505162507 79 211 1.0 12.0 0.00 0.00 0.00 40 1008.7
20260505162007 78 243 0.0 8.0 0.00 0.00 0.00 42 1008.8
20260505161507 78 241 5.0 15.0 0.00 0.00 0.00 40 1009.0
20260505160507 78 238 3.0 12.0 0.00 0.00 0.00 40 1009.1
20260505152507 76 238 1.0 14.0 0.00 0.00 0.00 44 1009.2
20260505152007 76 213 1.0 15.0 0.00 0.00 0.00 44 1009.2
20260505151507 76 237 6.0 15.0 0.00 0.00 0.00 42 1009.3
20260505150508 76 239 2.0 13.0 0.00 0.00 0.00 45 1009.3
20260505140507 73 241 2.0 8.0 0.00 0.00 0.00 49 1009.4